This is the latest recevied weather packets stored in our database for station/object JA0BES-13. If no packets are shown the sender has not sent any weather packets the latest 10 day(s).
| Time | Temp. | Humidity | Pressure | Rain* | Wind** | Luminosity | Snow |
|---|---|---|---|---|---|---|---|
| 1777354131 | 25.56° C | 57% | 1006 hPa | 0 mm | - | - | - |
| 1777353531 | 25.56° C | 55% | 1006.1 hPa | 0 mm | - | - | - |
| 1777352931 | 25° C | 53% | 1006 hPa | 0 mm | - | - | - |
| 1777352330 | 25° C | 52% | 1006.1 hPa | 0 mm | - | - | - |
| 1777351730 | 25° C | 55% | 1006.2 hPa | 0 mm | - | - | - |
| 1777351130 | 24.44° C | 58% | 1006.4 hPa | 0 mm | - | - | - |
| 1777350529 | 24.44° C | 55% | 1006.7 hPa | 0 mm | - | - | - |
| 1777349929 | 24.44° C | 53% | 1006.7 hPa | 0 mm | - | - | - |
| 1777349329 | 23.89° C | 58% | 1006.8 hPa | 0 mm | - | - | - |
| 1777348728 | 23.89° C | 59% | 1007 hPa | 0 mm | - | - | - |
| 1777348128 | 23.33° C | 62% | 1006.8 hPa | 0 mm | - | - | - |
| 1777347527 | 22.78° C | 63% | 1007.1 hPa | 0 mm | - | - | - |
| 1777346927 | 22.22° C | 65% | 1007.4 hPa | 0 mm | - | - | - |
| 1777346327 | 21.67° C | 65% | 1007.4 hPa | 0 mm | - | - | - |
| 1777345726 | 21.11° C | 67% | 1007.5 hPa | 0 mm | - | - | - |
| 1777345126 | 20.56° C | 67% | 1007.9 hPa | 0 mm | - | - | - |
| 1777344526 | 20.56° C | 70% | 1007.8 hPa | 0 mm | - | - | - |
| 1777343925 | 20° C | 73% | 1008 hPa | 0 mm | - | - | - |
| 1777343325 | 19.44° C | 75% | 1008.5 hPa | 0 mm | - | - | - |
| 1777342724 | 19.44° C | 78% | 1008.5 hPa | 0 mm | - | - | - |
| 1777342124 | 18.89° C | 79% | 1008.7 hPa | 0 mm | - | - | - |
| 1777341524 | 18.33° C | 80% | 1008.9 hPa | 0 mm | - | - | - |
| 1777340924 | 17.78° C | 83% | 1009.1 hPa | 0 mm | - | - | - |
| 1777340323 | 17.22° C | 86% | 1009.3 hPa | 0 mm | - | - | - |
| 1777339723 | 16.67° C | 86% | 1009.3 hPa | 0 mm | - | - | - |
* Rain since midnight (hover to see other rain measurements)
** Current wind speed in m/s (hover to see current wind gust speed)